Погода в Баклушах

Россия / Новосибирская область     54°22′38″N   79°07′14″E
темп.,
°C
ветер,
м/с
пор.,
м/с
влажн.,
%
обл.,
%
осадки,
мм/ч
давл.,
гПа
погр.,
м
4 июля, пн
пн401:00+12сз11895 0.0 100610
04:00+11всв11885 0.0 100610
07:00+13вюв22864 0.0 100685
10:00+19вюв33595 0.0 1005551
13:00+23вюв4545100 0.0 10041839
16:00+24юв4441100 0.0 10032047
19:00+22в5855100 0.0 1001311
22:00+20вюв5125819 0.0 1000512
5 июля, вт
вт501:00+16вюв51578100 0.1 998349
04:00+17вюв51480100 0.3 997395
07:00+16всв61285100 0.3 996389
10:00+18в4576100 0.3 997391
13:00+18в4676100 0.6 996427
16:00+18в71283100 1.9 996540
19:00+18всв51078100 1.9 996528
22:00+16св61385100 0.4 995348
6 июля, ср
ср601:00+14св3695100 1.8 997173
04:00+13ссв2295100 0.1 99724
07:00+14зсз2393100 0.1 99897
10:00+18сз4580100 0.0 999535
13:00+18сз4683100 0.5 1001614
16:00+18сз568399 0.6 1003579
19:00+20ссз468285 1.8 1004699
22:00+17с228871 1.8 100627
7 июля, чт
чт701:00+15ссз3695100 1.8 1006136
04:00+14с379765 0.0 1007147
07:00+14с39945 0.0 1009294
10:00+19ссв46756 0.0 1010568
13:00+19ссв576983 0.3 1011481
16:00+20ссв476369 0.1 1011556
19:00+22с55556 0.1 10111603
22:00+17с35773 0.0 101163
8 июля, пт
пт801:00+14св348625 0.0 101147
04:00+15всв36765 0.0 1011113
07:00+15всв358127 0.0 1011125
10:00+20св46595 0.0 1011557
13:00+23св5745100 0.0 10101976
16:00+24всв454198 0.0 10092457
19:00+21ссв4864100 0.0 1009443
22:00+18ссв497576 0.0 1010161